Location: Bittelbronn
(48.4454°N, 8.5870°E)
Time: 17:36:58
(UTC+00:00)

deb Delta 107 - Visible Passes

Search period start: 07 October 2024 00:00
Search period end: 17 October 2024 00:00
Orbit: 732 x 987 km, 97.7° (Epoch: 06 October)

Date Brightness Start Highest point End Pass type
(mag) Time Alt. Az. Time Alt. Az. Time Alt. Az.
07 Oct ? 19:30:07 11° NNE 19:30:07 11° NNE 19:30:27 10° NNE visible
07 Oct ? 21:12:19 18° N 21:12:19 18° N 21:13:37 10° N visible
08 Oct ? 21:03:10 17° N 21:03:10 17° N 21:04:20 10° N visible
09 Oct ? 20:53:59 16° N 20:53:59 16° N 20:55:02 10° N visible
10 Oct ? 20:44:50 15° N 20:44:50 15° N 20:45:43 10° N visible
11 Oct ? 20:35:38 14° N 20:35:38 14° N 20:36:22 10° N visible
12 Oct ? 20:26:28 13° N 20:26:28 13° N 20:27:01 10° N visible
13 Oct ? 20:17:16 12° N 20:17:16 12° N 20:17:37 10° N visible
14 Oct ? 20:08:05 10° NNE 20:08:05 10° NNE 20:08:11 10° N visible
